GFSGL_700_spd_000.txt.gz
Wind_Speed
7 5 1 1 3 9 8 1 5 10 11 11 12 10 10 9 10 10 8 10 9 11 13 13 13 19 14 27 18 17 22 22 20 20 18 17 30 30 34 23 23 21 14
5 2 0 2 6 8 5 4 8 11 13 14 13 11 10 10 11 12 14 10 11 12 14 13 14 14 13 19 19 20 20 21 13 24 19 21 26 26 25 28 24 19 12
4 3 2 4 6 7 6 8 10 13 13 14 15 13 10 13 14 13 11 9 9 12 15 13 14 12 15 18 16 19 26 24 17 23 19 21 30 26 19 13 16 14 11
4 5 4 7 9 10 10 11 14 16 14 14 14 14 14 14 15 16 14 11 10 13 11 13 14 14 13 14 19 22 25 20 18 17 18 22 27 18 15 17 16 15 11
6 7 7 9 11 14 15 15 16 17 17 15 12 12 13 14 15 15 13 12 12 14 14 13 13 15 18 17 21 17 18 16 20 24 17 16 23 23 19 17 16 14 12
8 9 10 11 15 15 15 14 14 15 15 14 12 11 11 11 14 14 12 10 11 14 15 9 12 19 17 19 17 20 19 19 21 23 29 22 20 18 16 15 15 14 13
11 12 13 12 15 13 11 11 12 13 12 11 12 10 11 14 13 8 6 13 12 15 12 12 13 18 15 10 15 21 30 32 26 20 19 18 17 17 18 17 15 14 12
14 15 15 11 14 14 15 14 12 10 10 12 11 11 9 8 10 8 12 11 17 12 15 16 18 14 17 28 27 34 26 21 24 23 23 22 21 20 19 17 14 11 8
15 17 17 15 13 14 13 11 10 9 8 8 13 13 13 11 17 19 13 13 13 14 18 20 14 23 35 24 24 23 24 22 21 22 24 24 22 19 16 14 10 6 2
15 17 17 15 12 12 11 9 7 8 8 10 12 14 18 16 20 16 17 21 19 16 23 20 28 26 22 24 25 24 23 22 23 22 21 20 18 16 12 8 4 2 1
13 15 17 15 13 11 9 8 7 7 9 12 12 14 16 15 14 18 22 14 10 16 25 26 26 25 21 26 26 26 27 25 23 21 18 17 15 12 7 4 1 2 6
12 14 14 15 15 13 11 8 7 7 9 12 13 13 14 15 17 17 17 19 18 19 20 22 22 23 25 26 26 27 27 24 21 19 17 13 11 8 4 3 5 8 12
13 13 15 14 14 14 13 10 8 8 8 10 12 12 12 13 16 17 17 19 21 22 22 21 20 19 20 22 24 25 24 23 21 16 12 10 8 6 6 7 10 13 16
13 13 13 14 14 15 13 12 10 10 11 11 11 12 13 13 13 14 15 15 17 18 19 19 19 19 21 22 23 23 23 21 17 12 9 9 8 8 10 13 15 17 20
15 14 15 14 14 15 15 13 12 12 12 13 13 13 12 12 12 12 11 11 12 13 15 16 17 19 20 20 22 23 21 18 14 10 9 10 12 14 16 17 18 20 24
17 14 14 17 15 16 16 16 15 14 12 12 13 15 16 17 16 14 13 13 14 13 13 13 14 16 18 19 21 22 19 16 14 13 13 15 17 18 19 20 22 25 29
15 12 10 13 17 15 15 16 15 15 14 13 12 13 14 16 17 17 17 16 16 16 14 15 15 16 17 19 21 20 19 17 17 18 19 20 20 20 21 22 24 27 28
16 14 11 8 9 15 15 14 15 14 14 13 11 11 12 14 16 19 20 20 18 16 16 16 16 16 18 20 22 22 22 23 23 22 22 22 22 24 25 27 29 30 31
20 17 15 13 11 10 12 15 15 14 13 13 14 14 14 15 17 18 20 19 17 17 17 18 17 17 19 21 23 24 25 26 26 25 25 25 26 28 29 31 32 35 35
24 21 20 18 17 15 13 14 14 14 14 14 15 15 17 17 17 16 17 17 17 16 17 17 19 20 20 21 23 27 28 28 28 27 27 28 30 31 33 35 37 36 38
28 25 23 24 24 22 21 17 16 16 16 16 16 16 17 19 19 19 18 17 16 15 15 16 18 21 22 24 25 27 29 29 30 31 31 32 34 32 34 34 39 37 37
32 28 26 24 25 28 26 25 25 22 20 18 17 15 15 17 19 21 21 20 19 19 19 19 19 19 21 25 28 30 30 30 32 32 33 36 42 41 43 39 37 45 35
34 32 29 28 24 22 23 26 31 33 30 27 23 22 22 20 18 19 21 22 22 22 21 22 22 24 26 25 25 27 30 39 35 35 41 47 51 50 48 46 48 46 28
36 35 35 32 30 27 27 26 27 31 36 34 30 28 28 22 20 22 22 21 23 25 26 26 26 28 27 29 29 34 33 35 33 37 44 45 48 48 45 44 49 39 20
36 33 34 34 31 28 26 27 25 26 26 28 27 26 26 24 22 21 23 24 25 27 27 29 30 31 30 31 33 36 37 38 36 38 42 46 48 47 46 50 41 29 20
35 31 30 30 31 29 25 24 23 23 23 23 25 26 26 25 24 23 23 26 27 28 31 35 37 37 38 39 42 42 42 39 41 42 42 49 51 41 39 45 29 21 21

GFSGL_700_spd_003.txt.gz
Wind_Speed
6 7 6 4 6 8 4 1 4 6 9 11 11 7 6 7 8 7 6 6 8 10 9 9 8 14 14 16 16 7 12 12 23 26 21 29 28 29 26 31 26 23 20
5 4 2 3 5 3 4 5 6 8 9 12 11 10 9 8 8 9 8 8 7 10 13 11 13 16 17 20 18 14 15 13 13 21 25 32 35 35 32 27 25 24 17
4 3 2 4 5 6 7 7 8 8 10 12 11 11 10 11 11 11 10 7 10 11 12 16 14 12 13 12 11 15 14 9 14 21 23 35 32 19 22 32 25 18 11
6 6 6 6 7 9 9 7 8 8 9 10 11 12 13 13 11 11 9 9 12 12 14 13 14 13 13 9 15 19 21 15 14 16 30 30 28 27 24 23 22 15 11
8 8 8 8 10 12 12 12 10 11 11 11 11 13 14 14 14 12 10 10 12 10 11 12 12 10 7 17 15 18 23 15 21 16 25 29 30 18 16 19 22 18 13
10 10 9 10 10 9 11 12 12 11 12 12 12 12 12 12 13 12 9 10 13 14 12 11 15 15 18 18 16 18 20 17 17 20 32 30 19 23 25 23 20 14 12
12 11 10 13 12 11 11 10 8 9 8 8 10 11 12 13 11 8 8 9 13 12 9 11 16 19 20 20 20 23 19 23 24 25 27 26 23 21 21 20 17 13 12
13 13 11 14 9 8 9 11 12 11 9 9 10 10 11 13 10 2 6 11 10 13 11 15 14 11 17 21 20 29 35 35 33 28 27 24 21 21 20 17 16 14 12
15 13 11 11 11 13 11 9 9 8 8 8 9 10 8 11 12 6 7 15 14 13 16 17 12 8 24 27 32 27 27 27 26 25 23 22 21 21 20 17 15 11 7
17 15 12 11 11 10 7 7 6 7 9 10 10 10 17 18 18 11 12 13 14 16 19 17 19 23 27 29 26 24 23 22 22 22 22 23 23 22 20 16 12 8 7
19 18 15 12 11 8 6 5 6 8 9 11 12 14 16 15 18 20 18 18 17 16 14 22 33 25 23 23 25 25 25 24 24 23 22 21 20 18 14 12 10 7 4
16 18 18 14 10 8 7 7 8 8 9 10 10 10 11 15 17 13 12 15 22 18 23 22 17 20 19 22 23 25 26 25 23 22 20 18 17 14 10 7 4 4 6
14 15 17 17 15 12 9 9 8 9 10 11 11 11 11 13 14 13 14 15 23 24 24 23 19 17 18 21 22 24 25 24 23 21 17 15 12 9 6 5 7 9 11
15 14 14 14 14 15 14 13 12 11 11 11 12 12 12 12 12 12 12 13 16 18 19 18 17 18 20 22 24 23 23 22 23 20 16 14 11 9 8 8 10 14 16
15 17 16 15 15 14 14 14 15 14 14 14 14 14 13 11 11 12 12 12 12 13 15 16 16 17 19 21 23 24 23 22 20 16 12 11 10 10 11 13 15 17 19
16 15 18 16 16 15 15 16 17 18 17 16 16 17 18 17 16 14 13 14 14 14 13 13 14 15 17 19 21 23 23 22 19 14 12 12 12 13 15 17 19 20 22
17 16 15 18 18 17 17 16 15 15 16 17 17 17 17 17 17 17 16 16 15 14 14 15 15 15 17 19 20 23 24 23 19 16 15 16 17 18 20 21 22 24 26
17 17 15 13 19 19 18 17 17 16 15 14 15 15 15 15 15 15 16 16 15 15 15 16 16 18 20 22 23 24 26 25 23 21 20 20 21 23 25 25 26 28 30
20 20 18 16 16 19 20 20 19 19 18 18 18 18 18 17 17 18 18 16 16 16 16 16 17 18 19 22 24 26 27 28 27 26 26 26 27 27 27 28 29 29 30
23 20 18 17 16 17 17 20 21 20 20 20 19 18 19 18 17 16 17 17 16 15 16 18 19 20 21 22 24 26 29 29 31 31 30 29 29 29 31 32 32 35 31
28 25 23 22 20 17 15 15 15 18 21 20 20 20 19 19 19 19 19 19 18 18 18 18 20 22 23 25 25 26 27 29 29 30 31 30 31 34 34 35 43 49 36
30 29 29 26 24 25 23 20 18 18 18 20 21 21 21 21 21 22 22 21 20 21 21 23 24 25 26 27 27 29 30 30 30 29 30 32 33 39 38 41 44 48 47
31 33 33 31 29 26 27 30 28 27 24 22 22 22 21 20 18 18 18 20 22 23 24 25 27 27 27 28 30 32 32 31 31 32 34 38 41 39 36 42 44 45 45
37 35 37 35 33 29 27 26 28 28 29 33 33 32 30 29 27 24 22 22 24 25 27 28 29 29 30 32 33 34 34 34 33 32 34 38 41 40 35 40 43 47 38
42 40 38 38 36 34 33 31 29 29 29 29 29 35 39 36 34 31 26 26 25 24 25 26 28 31 34 35 36 37 37 37 36 37 40 42 42 45 44 39 40 49 41
43 42 40 40 43 42 37 38 36 32 32 32 30 29 30 34 33 28 28 29 28 28 28 29 30 31 32 33 35 36 38 40 41 40 43 43 44 43 43 41 41 34 33

GFSGL_700_spd_006.txt.gz
Wind_Speed
5 4 5 7 8 9 5 3 4 5 6 7 7 6 4 4 5 4 4 5 5 7 5 4 8 13 12 17 16 8 9 12 14 24 27 24 23 29 29 36 37 27 25
4 3 3 4 4 2 1 3 6 8 6 6 6 5 5 6 6 8 4 5 6 7 6 6 9 13 13 19 15 10 7 10 32 34 33 29 21 29 29 31 30 23 25
3 3 3 1 1 2 2 5 7 7 7 7 7 6 6 8 9 7 3 7 6 8 9 11 13 12 15 16 15 9 11 21 25 33 28 32 32 31 33 29 23 25 21
4 4 2 2 3 5 3 6 8 8 8 7 7 7 8 10 10 6 7 10 9 7 10 10 12 10 14 11 14 14 11 14 22 28 44 28 31 33 29 27 28 20 14
6 6 6 6 7 7 7 7 8 8 7 8 8 8 9 10 9 6 7 10 9 8 11 10 12 12 10 12 14 17 14 17 24 29 39 33 29 26 32 30 22 16 16
8 8 9 9 8 7 8 10 10 10 9 10 11 11 9 10 9 8 8 9 10 10 9 6 7 6 14 15 20 18 17 12 16 28 31 26 26 22 31 20 22 16 11
10 9 10 10 9 9 7 7 9 9 9 8 8 9 9 9 8 7 6 10 10 11 8 8 11 17 10 15 23 24 21 19 17 23 26 24 20 21 24 26 20 13 12
11 10 13 12 8 6 8 8 8 6 7 8 8 8 9 9 8 4 8 8 9 8 13 13 13 15 15 17 22 25 24 22 22 31 29 26 22 22 19 16 14 15 16
11 10 12 10 7 8 7 6 6 7 7 8 9 7 11 13 7 3 9 11 10 11 13 13 11 14 15 16 17 22 23 30 33 30 28 24 20 18 17 19 19 16 13
12 11 12 12 12 10 6 5 6 6 7 7 7 5 10 12 7 5 14 14 12 14 14 11 11 22 24 26 26 25 26 25 25 23 22 21 22 24 22 20 16 13 10
14 13 13 14 12 9 6 6 7 9 9 11 11 13 16 15 12 12 15 15 16 17 13 13 25 29 29 25 22 22 22 22 24 24 26 26 24 21 18 14 12 12 10
16 14 14 13 11 9 8 7 9 11 11 11 11 11 15 16 14 11 15 19 17 13 16 21 22 23 19 20 20 22 24 25 26 25 24 22 20 18 14 11 9 7 5
16 16 14 12 11 10 9 9 9 11 12 12 10 11 12 12 8 9 15 23 23 28 27 21 20 19 19 21 23 26 27 26 24 24 22 20 17 14 12 10 8 7 8
12 14 14 13 12 12 12 11 11 11 11 12 12 12 12 11 10 11 15 17 22 23 17 16 16 15 17 19 22 24 25 25 24 22 19 17 14 12 9 8 8 10 12
12 12 12 13 14 14 13 11 11 12 12 12 12 12 11 11 11 12 13 13 14 15 15 14 13 15 16 19 21 22 22 21 21 20 18 16 14 12 11 12 13 14 16
14 14 13 13 13 14 15 15 14 13 14 14 14 14 13 14 13 11 11 12 14 13 12 12 11 12 14 17 21 23 23 23 22 20 18 16 15 15 15 15 16 18 19
15 13 13 16 16 15 16 17 16 15 15 14 15 15 14 14 13 12 12 12 12 12 13 13 13 13 14 18 20 23 24 24 24 23 21 18 17 18 17 18 19 21 23
16 15 15 14 17 18 17 17 18 17 16 15 16 17 17 17 16 15 15 14 13 13 13 13 14 15 17 18 20 22 25 27 27 27 25 22 20 21 20 22 25 27 28
17 17 17 17 17 21 21 20 19 19 20 19 20 20 19 19 19 19 18 16 15 15 15 15 16 17 18 20 22 24 25 27 28 29 29 27 26 26 26 28 30 30 32
20 20 18 18 18 20 25 24 23 21 21 22 21 21 21 20 19 18 17 17 17 17 18 19 21 21 22 22 24 25 27 29 30 32 33 33 33 32 32 32 34 32 37
22 24 21 19 18 18 19 23 23 22 22 21 21 22 20 19 19 19 18 19 19 19 20 21 22 23 24 25 26 27 28 29 31 32 34 35 35 35 35 38 36 35 46
27 29 27 22 22 21 18 17 17 18 19 20 20 21 19 22 21 21 21 20 19 20 22 23 25 27 28 28 29 30 31 31 31 31 33 34 35 35 38 40 43 41 45
27 30 32 29 25 25 24 23 21 19 19 20 21 22 20 21 21 21 21 22 22 22 23 24 26 29 30 32 32 32 33 34 35 34 35 36 37 37 40 43 43 47 41
35 28 31 33 33 31 30 28 27 28 29 28 26 26 24 23 22 23 22 22 21 21 22 25 27 29 31 32 33 33 33 35 36 38 38 38 40 41 43 44 45 47 47
44 40 36 35 35 37 35 33 31 30 29 31 34 33 32 30 31 33 32 30 29 27 27 27 26 25 26 29 31 33 34 35 35 35 37 38 41 43 44 45 47 47 47
49 48 46 44 42 40 39 38 37 35 33 31 31 31 30 31 31 34 39 40 37 32 29 29 28 26 25 25 26 27 30 31 32 34 37 39 41 45 45 48 51 50 45

GFSGL_700_spd_009.txt.gz
Wind_Speed
7 4 4 5 6 7 5 3 3 3 5 7 6 6 4 2 2 3 3 4 5 6 10 8 15 10 7 9 13 13 13 12 10 9 17 22 36 34 35 38 37 32 25
3 3 1 4 4 2 3 2 4 5 6 8 5 6 4 3 4 3 2 3 5 4 5 7 8 9 9 13 11 8 9 11 7 9 26 29 24 31 20 24 30 30 28
5 4 4 2 2 1 2 3 6 5 6 6 5 6 5 3 4 5 1 5 7 6 7 7 10 9 11 13 11 4 4 9 9 23 28 26 31 37 34 32 31 27 21
6 4 1 1 0 3 2 5 6 6 5 6 5 6 6 6 6 6 9 9 6 8 10 13 13 12 13 12 8 2 3 19 40 34 34 31 35 36 32 31 27 24 26
6 6 2 2 3 2 4 6 5 7 7 6 5 6 6 6 5 6 7 9 12 10 11 10 8 11 11 11 3 2 14 26 36 30 39 37 36 33 29 24 26 21 19
6 5 4 4 3 5 8 7 7 5 4 6 7 7 6 7 7 6 6 9 11 11 10 9 11 12 10 12 12 8 11 20 32 37 27 34 34 29 27 26 16 18 14
7 5 7 5 6 7 8 9 8 6 6 6 7 6 6 7 6 6 7 7 10 10 8 7 12 12 12 18 19 16 16 20 17 32 25 32 22 24 24 20 16 12 11
8 6 8 7 5 7 8 5 5 4 4 5 6 6 6 7 6 4 5 5 8 10 13 15 11 13 16 22 22 20 19 18 26 30 20 20 19 24 18 17 16 14 17
10 7 11 8 5 6 6 6 7 5 6 6 4 3 8 9 6 3 8 5 6 10 12 15 15 16 16 20 19 21 20 20 29 24 21 19 20 21 20 18 17 18 17
11 9 12 10 7 6 5 5 6 7 7 5 4 6 9 9 3 4 11 9 9 10 9 10 14 15 17 17 16 16 22 27 31 26 30 27 23 19 18 18 17 15 13
12 11 12 10 8 5 4 5 7 9 8 9 7 6 12 9 7 11 12 12 13 10 8 9 16 17 22 24 23 24 24 27 27 25 22 20 21 23 22 20 17 8 6
12 12 11 9 8 5 5 7 8 9 10 10 9 12 14 11 9 12 12 14 14 9 9 20 24 26 24 23 21 21 21 23 24 23 23 23 23 22 19 15 11 11 7
12 11 10 8 7 7 7 8 9 9 12 9 10 7 11 8 8 12 15 16 15 17 20 23 20 20 20 22 23 24 24 25 25 24 23 22 20 17 14 11 9 7 7
9 10 9 8 7 7 8 9 10 9 9 9 5 10 9 10 11 16 17 14 17 20 17 17 17 18 19 20 22 23 24 25 24 21 21 20 17 13 11 10 10 10 10
10 9 9 9 9 8 8 9 9 10 9 10 9 8 12 14 15 16 15 19 20 16 15 16 14 15 16 19 21 23 21 22 19 16 19 15 13 13 12 11 11 12 14
13 11 10 9 9 10 10 10 11 12 10 10 12 12 10 14 14 16 17 16 14 13 12 12 13 14 16 18 20 21 19 19 20 19 19 18 17 16 15 15 16 17 20
13 13 13 12 11 11 11 11 11 11 12 12 11 10 9 11 12 13 13 14 15 14 13 12 12 13 15 17 18 20 20 20 20 20 20 19 18 18 18 18 19 20 24
14 15 14 14 14 14 13 13 12 12 13 13 14 13 12 11 11 12 12 11 11 11 10 10 10 11 12 13 16 18 21 23 23 24 25 24 23 23 21 21 22 23 26
10 12 15 17 16 15 17 16 15 15 15 16 18 18 17 16 15 14 14 13 13 13 13 12 13 13 14 15 16 18 20 22 24 25 27 28 28 28 28 26 28 30 28
15 14 13 17 17 16 18 20 20 20 19 20 20 18 19 19 18 17 16 16 15 15 15 15 15 15 15 16 17 19 21 23 25 26 27 29 31 31 32 33 33 39 37
21 19 16 18 17 17 17 20 23 22 22 21 21 21 19 17 18 19 19 20 20 21 21 20 20 21 21 22 22 22 23 23 25 26 27 28 32 34 34 36 38 43 44
29 26 22 22 20 18 16 17 20 22 22 21 20 21 18 18 20 19 18 18 18 19 20 22 23 24 24 25 26 27 26 27 27 28 28 27 31 32 34 35 38 44 42
35 32 29 23 25 21 18 18 18 17 18 18 19 20 17 18 19 18 18 18 19 20 20 22 22 23 25 27 28 29 30 30 30 30 31 31 31 34 36 36 38 45 43
40 38 35 29 27 29 24 21 21 20 20 20 21 22 19 18 21 20 19 19 18 18 19 21 22 25 26 27 28 29 29 30 30 31 32 33 34 34 37 38 41 42 42
37 42 38 38 31 33 34 29 26 27 27 28 28 28 27 26 24 25 25 27 28 27 26 25 24 23 24 26 27 27 27 28 28 29 30 32 34 33 36 39 42 42 44
50 48 40 40 41 35 40 39 36 33 33 32 31 30 30 30 32 31 28 27 29 31 31 32 31 30 28 26 24 23 24 26 27 28 30 32 36 35 37 41 44 46 48

GFSGL_700_spd_015.txt.gz
Wind_Speed
7 8 10 8 8 7 6 4 4 2 3 2 4 5 3 1 2 4 3 2 3 6 5 9 8 9 10 10 9 13 13 13 14 13 12 12 12 14 28 24 23 24 27
7 9 6 5 6 7 5 3 4 3 4 4 5 4 3 6 3 4 3 3 4 3 10 7 8 7 10 10 16 11 12 14 14 11 6 15 12 14 14 24 34 21 30
6 4 4 3 4 4 3 3 6 5 5 7 4 5 5 5 6 6 2 2 6 6 6 9 10 10 8 7 12 13 14 12 15 10 11 17 14 11 35 35 27 30 30
5 1 2 1 1 5 3 5 8 7 6 4 5 7 8 7 9 7 3 4 4 4 6 8 9 11 12 11 11 9 9 12 9 19 31 28 34 43 36 30 36 25 26
6 3 2 3 1 3 4 9 9 7 6 7 8 8 9 7 11 14 14 11 8 8 8 13 11 15 14 11 8 14 14 11 11 25 34 36 38 30 31 27 31 27 28
5 3 2 1 1 3 6 7 9 8 8 8 10 10 10 7 9 14 14 13 10 11 9 12 12 11 10 2 4 15 16 17 15 27 30 24 35 30 35 33 31 31 35
8 2 2 2 4 5 6 8 8 8 9 11 11 10 10 9 8 8 11 12 8 8 10 10 11 10 6 11 18 24 22 22 21 31 34 39 37 32 31 28 28 27 21
6 4 4 3 4 6 8 9 8 8 8 11 11 9 8 7 7 7 10 10 11 14 10 11 8 9 13 12 21 27 27 31 35 32 32 28 31 30 27 22 25 24 23
4 5 5 4 5 7 9 7 6 8 9 10 9 7 6 6 5 6 9 11 12 11 8 9 12 15 16 16 23 26 31 35 37 33 28 26 28 29 24 22 21 21 23
4 4 7 4 8 8 7 6 5 8 7 6 7 8 8 6 3 7 8 9 12 13 15 17 20 18 18 17 27 32 32 34 32 32 27 27 27 27 22 19 19 20 20
4 5 7 4 4 6 6 6 6 7 5 6 9 9 10 5 3 12 9 11 12 13 17 15 20 20 21 21 24 22 28 28 30 27 31 25 25 23 20 21 22 20 17
5 5 6 4 3 6 7 7 9 8 8 8 10 13 10 7 11 12 13 11 10 11 14 14 18 19 19 19 26 31 27 20 26 28 29 28 24 22 21 21 20 17 15
9 5 4 2 8 8 7 7 7 10 12 13 13 13 11 13 11 11 11 8 8 18 20 19 19 21 21 24 24 30 29 17 23 28 28 24 21 19 18 17 14 16 13
11 7 5 5 8 8 8 6 4 5 10 10 9 8 11 13 13 12 10 14 20 26 24 21 19 22 25 26 26 27 26 24 21 21 21 20 20 18 16 13 10 8 4
10 10 8 7 8 8 8 6 6 8 11 13 10 8 11 16 19 18 18 20 22 23 21 19 17 18 20 24 26 26 25 24 22 21 21 20 18 16 13 10 8 7 5
9 9 10 7 7 8 8 6 6 12 12 14 14 13 14 16 16 18 21 22 19 19 18 16 15 16 16 18 19 20 21 20 22 22 21 19 16 13 12 10 9 7 8
8 7 6 7 7 7 8 7 7 7 11 12 12 13 13 13 17 16 17 17 19 18 17 16 15 14 15 15 15 15 16 16 14 16 17 17 16 15 14 12 12 11 10
9 7 6 5 6 6 7 8 8 7 6 8 11 11 12 12 12 14 15 15 15 16 16 15 14 13 13 13 14 14 14 16 14 13 13 16 18 18 17 14 14 14 14
12 10 9 8 6 6 7 7 10 11 10 9 9 8 8 9 9 10 11 11 10 11 11 11 12 13 13 13 13 13 15 15 15 15 14 13 14 16 18 18 18 19 20
11 9 8 11 11 9 8 7 8 11 12 12 12 11 12 11 9 8 8 8 8 7 7 7 7 8 10 11 13 14 15 16 18 20 19 18 17 20 22 23 22 22 22
12 15 12 10 9 10 10 10 9 9 11 13 14 14 13 14 14 13 13 12 11 10 10 9 10 10 10 10 10 11 11 12 12 14 17 19 19 20 19 20 22 24 25
18 14 14 15 14 12 11 10 11 12 12 12 13 15 18 19 20 19 19 18 16 16 15 15 16 15 14 13 13 13 14 14 14 15 17 18 19 19 20 22 22 24 26
27 23 20 18 16 19 15 13 13 13 13 13 14 14 18 20 21 21 21 20 20 19 18 18 18 18 17 15 15 15 14 14 14 16 19 20 19 20 21 23 22 24 27
34 34 30 26 24 21 23 20 17 15 14 14 16 14 13 16 20 21 21 21 20 19 18 18 16 15 15 17 18 18 17 17 17 18 20 21 20 20 22 23 22 22 25
37 38 38 35 33 31 26 27 25 22 21 18 18 17 14 12 15 16 16 17 18 19 18 17 15 14 15 16 17 17 18 18 18 19 20 21 20 21 23 24 23 23 27
46 42 42 42 41 39 36 34 30 31 28 26 25 23 20 19 17 16 16 17 17 19 19 19 19 20 20 20 21 22 22 23 23 22 22 23 22 22 24 25 25 26 28

GFSGL_700_spd_021.txt.gz
Wind_Speed
7 9 11 12 11 11 10 9 10 11 11 8 9 9 9 8 8 6 7 9 9 9 7 8 9 10 11 11 10 10 11 14 15 15 14 16 15 19 18 20 21 21 21
9 11 11 10 11 10 8 9 10 12 8 6 6 7 6 5 3 6 6 8 9 8 8 7 7 8 11 10 9 10 14 16 14 14 13 13 15 18 16 18 18 22 28
9 10 11 10 8 9 10 9 10 8 6 6 7 6 4 3 3 4 7 7 5 8 8 9 8 7 7 8 10 10 13 16 15 14 9 13 22 21 22 17 22 21 23
9 9 8 8 7 10 9 8 8 8 8 8 7 6 3 2 6 6 5 7 6 6 6 11 9 10 8 9 12 12 13 14 15 14 11 14 14 15 20 20 22 18 23
9 8 6 4 2 5 8 7 8 8 8 8 9 8 5 4 6 6 5 4 4 4 7 9 10 11 8 9 9 14 13 14 14 14 17 17 18 16 18 26 23 24 21
10 8 4 3 1 4 7 8 9 8 7 10 10 8 5 4 4 11 7 3 6 6 8 8 9 8 9 10 13 13 12 8 6 5 11 24 21 27 32 22 26 29 36
11 7 4 2 1 3 7 7 9 9 9 10 10 8 5 4 3 4 5 4 5 7 9 10 6 9 14 16 17 16 13 7 8 7 19 23 21 25 28 27 19 32 28
10 5 3 2 1 3 6 8 9 8 8 9 9 8 6 3 3 6 9 4 3 4 7 9 4 1 4 10 20 22 18 19 25 26 22 26 31 26 22 28 29 25 32
10 7 4 4 6 4 6 8 7 7 9 10 9 8 6 5 3 5 8 5 6 6 5 4 8 9 10 20 26 30 28 25 21 33 24 24 22 30 29 30 32 30 28
9 6 7 8 9 7 5 6 7 8 10 9 8 7 7 5 4 4 4 4 4 6 7 10 15 12 17 22 28 26 35 37 35 38 36 32 27 29 31 26 20 22 21
11 11 8 10 9 7 5 5 8 8 7 6 6 6 7 4 5 6 5 6 6 10 11 14 17 14 24 31 33 33 35 37 35 34 32 35 35 32 28 23 21 20 18
13 14 11 10 9 7 6 7 6 4 5 7 7 7 5 2 7 8 6 7 8 13 13 14 15 20 33 35 31 31 31 30 34 32 30 29 28 27 25 26 27 28 25
14 10 9 8 8 6 6 7 5 3 2 7 9 7 6 6 10 9 8 7 8 12 14 15 17 26 34 33 28 22 21 18 24 30 26 24 22 23 26 29 27 23 23
14 10 8 7 5 4 4 6 7 5 7 9 10 8 9 7 7 9 7 5 6 10 16 17 20 24 29 31 29 29 25 17 17 25 23 21 22 24 25 23 19 16 15
13 11 8 7 4 4 3 4 5 5 9 12 11 10 10 8 7 8 8 10 11 11 14 16 19 23 23 27 26 25 24 25 24 22 21 18 19 21 20 19 17 14 14
12 11 8 7 5 5 5 3 5 4 8 12 12 11 8 8 8 10 15 18 15 14 13 13 15 17 20 24 19 20 24 25 27 25 23 20 20 20 20 18 17 16 14
11 11 8 7 5 5 5 4 7 8 10 14 13 12 12 12 13 15 17 17 15 15 16 16 17 17 20 22 20 20 21 24 25 24 22 21 22 21 19 18 16 16 15
12 11 10 7 6 5 5 7 7 8 9 11 11 11 10 12 13 13 13 12 11 11 14 16 16 16 17 18 19 18 19 20 20 20 21 22 23 22 20 18 16 14 13
14 13 11 9 7 6 6 6 8 9 8 10 11 10 9 10 11 12 13 12 10 8 8 9 11 13 14 15 16 17 17 16 17 18 19 20 21 21 20 18 17 17 17
14 13 11 10 9 7 6 7 9 10 10 9 8 9 8 8 7 7 9 11 12 14 14 12 11 11 13 14 14 14 15 16 16 18 18 18 19 20 20 19 20 21 22
18 14 12 9 7 6 5 5 6 9 10 11 11 11 10 10 10 10 10 9 9 10 11 13 15 15 15 15 17 18 18 18 19 20 21 21 21 22 22 23 24 25 26
19 19 17 14 10 7 4 3 4 6 8 11 14 15 15 15 15 15 14 14 13 13 13 14 14 14 15 17 18 20 21 21 21 22 22 23 25 26 26 28 28 29 29
23 22 21 20 17 14 11 7 5 4 5 6 10 14 16 17 18 19 18 18 19 19 19 19 18 18 17 17 17 17 18 18 18 19 21 22 23 24 25 26 27 27 28
29 27 26 24 22 21 19 17 15 12 10 8 9 11 12 15 17 18 20 22 23 24 25 26 25 23 22 21 20 20 20 20 21 22 23 25 26 26 27 28 28 29 30
28 28 29 28 27 26 25 23 21 20 19 17 16 14 13 13 15 15 15 21 23 25 26 27 27 26 24 23 23 22 22 22 23 24 26 28 30 30 31 31 30 31 32
32 29 29 29 28 28 29 30 29 27 27 26 24 22 20 19 17 17 18 18 19 23 26 27 27 26 25 25 24 23 23 23 24 26 29 31 32 33 34 34 33 33 34

GFSGL_700_spd_024.txt.gz
Wind_Speed
9 9 10 12 12 11 10 10 11 10 9 8 8 7 8 8 9 9 9 9 7 6 3 5 8 8 10 8 9 9 9 10 12 14 15 14 14 15 16 15 16 21 22
9 10 11 9 9 10 10 11 10 8 6 5 5 5 6 6 7 8 9 9 7 5 6 6 9 9 9 9 9 11 10 12 14 14 14 13 15 15 15 16 19 21 21
9 9 7 8 9 10 10 9 8 7 5 4 5 4 4 3 6 10 8 7 6 6 6 7 9 8 10 10 8 8 11 14 13 12 12 12 11 16 16 17 19 19 23
7 6 6 6 7 8 8 8 7 7 6 5 5 4 3 0 4 8 2 4 7 7 7 9 9 10 10 10 9 8 8 15 12 12 11 7 19 18 15 15 18 20 20
5 3 4 5 6 8 9 8 7 8 6 5 6 7 5 6 6 3 5 2 6 6 9 12 10 9 8 8 9 12 9 13 11 12 8 9 16 16 23 20 27 20 22
3 7 6 4 3 5 8 8 9 8 6 7 9 8 5 4 3 6 2 6 5 8 7 12 8 10 8 7 8 16 15 11 8 9 10 15 13 21 22 23 22 20 24
9 6 4 4 3 0 6 9 9 8 7 7 8 6 4 1 5 7 3 3 6 4 7 8 7 9 11 9 10 13 13 14 14 10 7 18 13 27 24 23 19 19 18
10 6 6 4 2 2 5 8 8 7 7 9 9 7 4 1 5 7 5 5 4 2 2 10 8 10 14 16 15 16 15 10 13 11 17 23 23 25 22 13 16 29 35
9 6 5 3 4 5 5 6 7 7 7 10 9 8 4 1 3 6 7 3 6 6 3 4 4 8 7 15 20 22 9 13 20 26 25 18 17 29 22 22 34 34 32
9 6 6 6 8 7 6 7 7 7 9 8 8 7 2 1 0 2 4 2 4 4 3 6 9 12 15 17 18 20 27 26 28 28 32 31 28 30 32 28 29 27 26
10 10 8 8 9 7 6 7 7 7 6 6 5 4 5 2 1 2 4 4 4 8 8 8 14 20 25 24 21 26 27 30 27 29 33 36 32 35 34 32 27 23 21
11 10 9 10 8 8 7 8 7 5 5 4 5 6 6 2 3 4 5 7 8 12 10 9 18 26 26 25 25 29 29 33 34 30 33 31 37 34 33 32 31 30 28
15 11 8 10 7 6 7 7 5 4 5 7 7 6 6 3 8 6 6 7 10 13 11 9 23 27 30 35 31 29 29 29 26 27 30 34 33 31 30 30 30 29 28
15 13 8 9 6 5 4 5 5 4 5 9 10 7 6 7 8 8 6 6 7 13 12 13 24 31 31 31 28 25 25 25 24 26 27 27 26 25 25 25 23 22 20
14 11 8 7 6 5 4 3 4 4 6 11 11 11 10 8 8 7 6 7 10 14 14 15 23 28 24 24 26 25 24 25 25 23 20 20 21 22 22 21 18 17 16
11 12 9 7 6 6 5 5 5 5 7 9 8 7 7 6 6 6 8 12 12 13 15 14 17 20 21 21 23 21 23 25 26 21 19 19 20 20 19 18 16 14 15
11 12 10 8 6 6 6 6 5 5 7 11 10 10 11 11 13 16 15 13 13 14 16 16 16 18 18 17 17 19 21 24 25 23 20 20 21 22 21 19 18 18 16
13 12 12 9 6 5 5 6 8 8 9 11 11 11 12 13 16 15 14 12 11 12 15 16 16 16 18 18 15 16 20 23 23 22 21 22 21 20 19 19 17 17 17
14 13 12 12 9 6 5 5 5 7 7 8 9 9 9 9 9 11 13 13 11 10 10 11 13 14 15 17 17 17 18 18 18 19 19 21 22 21 19 18 19 19 21
18 15 12 9 8 8 6 5 4 4 4 5 5 7 8 9 8 8 8 8 10 11 12 12 12 13 14 16 16 16 16 17 18 19 19 20 22 24 24 24 24 24 23
19 18 16 13 9 6 6 6 5 4 5 5 4 4 5 7 8 9 10 10 9 9 9 10 12 14 15 16 17 18 18 19 19 19 21 21 23 23 24 25 26 26 27
21 20 18 16 16 13 10 7 6 5 4 5 7 8 8 7 7 8 8 8 9 9 10 11 11 11 13 15 17 19 20 20 20 21 21 22 23 24 25 26 27 28 29
20 22 21 21 19 18 16 14 11 8 5 4 5 6 8 10 11 12 12 12 13 13 13 14 14 15 15 15 16 16 17 17 18 20 22 24 25 27 28 29 30 32 33
18 20 22 22 21 20 19 18 17 16 14 12 11 10 9 9 9 10 13 16 18 19 20 20 20 19 20 20 20 20 20 20 21 22 23 25 26 27 29 30 32 33 34
17 15 20 25 23 23 23 22 21 20 19 18 17 17 16 15 14 12 11 12 15 18 21 22 24 25 26 26 26 26 25 25 25 25 27 29 29 30 31 32 33 33 35
17 19 20 22 22 24 28 27 26 24 24 23 22 22 21 21 20 20 19 19 19 18 18 20 22 23 25 28 29 29 28 27 27 27 28 31 32 33 34 35 36 36 37

GFSGL_700_spd_027.txt.gz
Wind_Speed
9 10 11 10 10 11 12 13 14 10 7 5 5 5 5 6 5 7 8 7 7 9 8 7 8 8 7 8 8 7 9 11 13 14 15 16 16 15 15 16 15 16 18
7 7 7 9 10 11 12 11 7 5 3 3 3 4 4 4 5 6 8 8 9 9 9 8 8 9 9 8 7 9 10 11 13 13 14 16 15 16 18 16 16 17 19
6 8 9 9 10 10 9 7 5 4 4 4 5 4 2 2 4 8 11 9 5 9 10 10 10 10 10 10 10 10 8 10 12 12 13 14 15 15 17 17 15 19 20
7 8 7 8 8 7 6 6 6 5 6 6 6 5 3 0 2 6 3 5 10 9 12 11 12 10 13 12 10 9 8 10 11 12 14 15 14 15 14 16 22 20 22
5 5 4 5 5 6 6 6 6 8 8 7 7 7 6 3 5 1 1 2 7 8 12 15 14 12 13 13 13 11 10 14 12 13 14 13 15 16 17 18 22 19 31
4 5 6 5 4 5 7 7 8 9 9 7 9 8 6 2 4 5 5 3 6 7 10 12 11 12 14 12 13 14 14 16 13 12 7 12 16 20 18 16 19 22 25
7 7 7 6 4 5 7 8 11 10 8 10 11 8 5 1 8 4 5 2 4 8 8 12 11 12 13 9 10 18 18 17 16 13 10 8 11 17 19 29 19 22 19
8 8 5 4 5 7 10 11 11 9 10 12 11 7 4 2 4 5 3 5 4 3 10 14 12 14 12 12 12 16 17 17 16 11 15 16 10 25 20 20 17 15 18
8 7 5 5 6 8 10 11 10 9 9 12 10 7 3 2 4 4 3 8 5 2 3 6 10 13 15 16 15 16 16 12 12 10 25 23 25 23 22 19 19 18 24
8 6 7 6 9 11 11 11 9 8 11 11 9 5 2 1 1 3 2 3 3 0 3 2 7 10 13 20 20 19 11 13 19 27 25 29 23 25 22 26 25 27 27
10 8 8 8 10 11 11 10 10 11 11 9 6 4 3 2 2 2 3 2 4 3 1 3 11 15 15 19 20 17 8 16 29 30 27 32 34 27 32 33 28 26 25
13 9 10 10 10 10 9 9 9 9 8 8 7 6 4 1 2 3 5 5 8 6 4 10 14 19 21 23 27 21 19 22 27 31 31 31 36 34 37 33 31 31 29
14 10 12 12 10 8 9 8 7 7 8 8 8 7 5 2 5 5 7 9 10 9 9 15 18 20 25 29 29 24 23 25 29 33 31 34 36 40 37 36 35 34 30
15 9 11 10 8 6 6 5 4 3 6 10 10 8 7 7 7 7 7 6 9 7 10 16 17 20 28 27 28 28 26 27 32 27 33 36 36 35 33 31 29 28 27
15 9 10 10 7 5 5 5 4 4 5 9 10 8 8 8 8 7 6 9 10 9 11 17 21 25 26 29 30 27 24 26 26 28 30 27 27 25 25 25 24 23 20
14 13 11 10 8 7 7 7 7 5 8 7 6 6 6 6 7 8 8 12 14 11 15 19 20 21 21 22 25 25 27 27 26 26 24 22 21 21 20 20 20 19 17
13 13 13 12 10 9 8 6 6 6 7 8 6 6 6 8 11 14 14 14 16 15 16 18 20 16 16 18 18 21 24 25 25 23 22 21 21 21 22 21 19 18 18
14 14 12 10 10 9 9 9 8 9 10 9 10 10 12 15 16 16 15 14 14 15 17 19 18 18 15 17 17 16 19 22 22 20 20 21 21 21 21 21 20 19 19
17 14 14 12 10 10 9 10 10 10 10 10 11 11 12 13 12 13 14 14 14 14 14 16 19 20 19 17 17 16 18 21 21 20 19 20 21 20 20 21 21 20 21
18 17 14 12 11 10 8 7 8 9 9 8 7 9 10 11 11 10 9 9 10 12 13 13 14 16 17 17 18 18 18 19 21 22 22 21 21 22 22 22 21 21 22
19 18 17 15 12 10 10 10 7 6 7 7 8 8 7 8 9 9 8 9 8 8 8 10 11 12 13 15 16 17 18 19 21 21 22 22 23 24 24 26 27 27 27
19 19 18 16 16 14 12 11 11 10 8 7 7 7 7 6 6 6 6 6 7 9 10 11 12 13 13 14 16 17 17 18 18 19 19 21 23 24 26 28 29 30 31
16 17 19 19 18 18 18 16 13 12 11 9 8 7 6 7 7 7 8 8 8 8 9 9 10 11 12 14 15 16 17 17 18 21 22 24 25 25 26 27 28 30 31
12 12 15 19 21 21 20 19 17 16 15 14 14 13 12 12 11 11 11 12 13 14 15 15 15 15 15 15 16 16 16 17 19 21 22 25 26 27 29 31 31 32 33
8 7 9 16 18 19 19 20 19 19 18 18 17 16 15 14 14 14 15 17 18 19 20 20 20 20 21 22 23 23 23 23 24 24 26 27 29 30 31 32 33 35 36
22 15 15 12 12 13 17 21 23 22 22 21 20 20 19 19 19 19 19 20 20 20 21 22 23 24 25 27 27 27 27 28 28 29 30 33 34 35 36 36 36 38 39

GFSGL_700_spd_030.txt.gz
Wind_Speed
15 15 15 15 15 15 14 13 14 15 14 13 13 12 10 9 9 8 9 9 8 11 12 9 9 9 4 9 8 8 8 10 19 15 15 17 16 17 19 16 18 16 18
12 11 11 11 11 12 13 14 13 11 11 12 10 9 8 8 7 8 8 10 14 12 12 10 10 10 9 9 8 8 10 10 12 13 15 16 17 17 17 18 16 18 18
10 8 10 11 11 12 12 10 10 11 11 10 8 8 8 6 4 5 9 11 11 12 12 11 11 12 11 11 9 10 9 11 11 13 14 15 16 17 19 19 18 18 20
6 9 9 10 11 11 10 10 10 10 9 8 7 9 6 3 1 5 6 7 8 10 13 13 13 12 13 12 13 12 10 11 13 14 15 14 15 15 18 16 17 19 23
7 7 8 9 9 9 9 10 10 9 9 8 10 8 6 4 2 4 3 3 6 14 13 12 13 12 14 14 12 11 8 12 13 13 13 15 15 15 17 20 18 24 22
6 5 7 6 7 9 10 9 10 9 9 9 10 11 7 1 5 7 7 2 3 11 12 13 13 13 13 12 11 11 9 16 13 13 13 15 15 13 17 21 23 26 32
6 7 6 6 6 9 11 11 11 11 10 8 11 10 7 1 6 3 3 3 4 10 11 13 15 13 13 12 13 13 15 18 17 14 7 9 12 18 16 19 23 20 22
9 7 7 7 6 8 11 13 13 12 11 14 11 9 5 2 3 2 2 5 5 10 14 14 15 13 15 11 14 19 18 18 19 19 17 11 19 19 16 14 20 28 21
10 8 7 7 7 11 13 14 13 12 13 12 10 8 5 3 1 1 2 2 9 7 12 15 16 14 15 14 15 19 19 18 16 16 18 18 14 20 19 20 22 24 21
8 8 8 8 8 10 11 12 11 11 12 12 10 7 4 1 1 4 1 5 3 1 4 11 12 16 16 19 16 17 17 15 15 13 23 22 28 25 23 16 16 18 17
10 10 8 7 9 11 11 11 11 10 12 9 8 6 4 3 1 3 5 3 3 3 3 5 11 15 20 22 20 18 16 15 14 24 32 30 29 24 18 20 21 23 23
13 12 10 9 9 11 13 12 12 12 11 8 6 5 5 3 2 2 4 2 3 1 3 8 9 11 17 23 23 19 12 14 23 34 34 28 29 27 27 29 28 27 28
14 12 12 11 9 10 13 11 10 10 9 7 5 5 4 3 4 3 4 4 4 4 8 8 11 19 21 25 21 16 16 19 26 29 30 29 26 30 35 31 27 26 27
14 12 11 11 8 9 10 9 7 7 9 8 8 7 4 5 6 4 5 6 6 7 12 11 12 20 25 22 21 20 22 23 25 27 31 29 31 36 29 28 30 30 28
13 12 9 10 7 7 7 7 6 5 9 10 9 7 5 7 6 4 5 6 7 9 10 10 14 23 23 22 22 20 22 22 22 24 27 31 31 29 27 27 28 26 24
13 11 9 8 7 8 9 7 7 9 10 10 6 5 5 6 6 6 7 10 10 13 14 16 17 19 20 21 21 21 26 20 18 22 24 26 27 24 23 24 23 23 20
14 12 11 8 7 8 8 7 8 10 10 8 7 6 5 6 7 8 11 13 14 17 18 18 15 16 17 18 19 20 22 20 23 25 24 23 22 22 22 22 22 22 21
15 15 10 9 7 6 9 7 5 10 10 10 9 10 10 12 11 11 12 13 14 18 21 19 16 15 15 15 16 20 22 23 24 24 23 21 21 21 22 22 22 22 21
15 15 13 9 9 7 8 11 9 9 11 12 13 15 15 15 13 13 13 14 13 14 18 20 19 16 15 15 14 15 18 19 19 18 18 19 20 21 22 22 23 23 22
18 17 14 11 9 9 7 9 10 12 12 12 12 12 13 14 13 13 12 13 13 13 13 14 15 15 16 16 17 18 20 21 20 19 18 18 19 20 21 21 22 23 23
14 17 15 12 9 9 8 8 9 10 11 11 11 10 10 10 9 9 9 9 10 10 9 9 10 12 13 14 15 14 16 18 21 22 21 21 21 21 22 23 24 24 25
16 15 16 12 11 10 10 9 8 8 8 9 9 11 10 9 8 7 7 7 7 7 7 7 8 8 9 10 11 13 13 14 16 17 19 21 22 23 24 25 27 28 29
17 17 17 14 13 13 12 11 9 9 8 8 8 10 10 10 9 7 7 7 8 8 8 9 9 9 9 10 11 12 14 15 16 18 20 21 23 24 25 27 29 30 32
19 19 19 19 17 15 16 16 13 12 10 9 9 10 12 13 13 12 11 11 11 11 11 11 12 13 13 14 14 15 15 15 17 19 20 22 24 26 28 30 31 32 33
16 13 13 13 14 17 20 20 18 18 17 17 16 14 13 13 14 15 16 16 16 16 16 17 17 17 18 19 20 21 22 22 23 24 25 26 27 28 29 31 32 33 34
14 12 10 10 15 17 19 19 18 19 19 18 18 17 17 16 15 15 16 17 18 20 21 22 24 25 27 29 28 28 28 29 30 31 33 34 35 35 36 37 38 38 39

GFSGL_700_spd_033.txt.gz
Wind_Speed
18 17 15 15 17 18 19 20 19 18 17 17 16 18 18 17 15 13 14 12 12 13 11 10 10 10 6 4 5 6 9 11 17 17 17 16 15 16 15 17 15 16 17
15 15 15 16 16 16 16 16 15 16 16 16 15 14 13 13 12 11 11 12 12 12 11 11 11 10 7 8 7 7 7 11 17 16 15 18 17 18 19 17 17 17 17
16 15 14 13 13 14 15 16 15 14 14 14 12 12 11 10 8 9 9 11 13 11 14 11 11 11 10 9 8 8 7 8 14 13 16 18 19 18 19 18 19 18 19
15 12 12 12 13 14 13 13 12 13 13 11 11 11 9 7 7 6 8 9 10 12 12 11 12 13 12 11 9 11 10 10 12 14 16 17 18 18 20 19 19 21 21
9 8 9 11 12 12 13 13 14 13 12 12 11 9 10 8 5 3 5 4 8 11 13 11 12 11 11 11 12 12 11 12 12 13 15 16 16 17 19 21 20 22 23
5 7 9 10 10 11 12 13 12 12 12 11 11 11 10 7 4 8 7 6 5 11 14 13 11 13 11 14 14 12 11 14 14 14 13 15 17 16 19 20 21 23 28
6 7 8 9 9 11 13 12 13 13 13 11 10 11 9 5 4 6 2 3 3 11 10 13 13 12 13 13 13 12 8 17 16 16 12 14 15 13 15 20 20 21 23
8 9 9 8 8 10 11 11 12 13 11 10 10 9 7 5 4 3 1 3 3 9 11 13 14 14 14 13 12 12 10 18 19 18 13 13 18 16 14 18 21 21 23
12 11 8 7 8 11 11 12 13 12 11 11 9 8 6 3 2 3 2 3 6 8 13 13 15 13 14 15 12 15 15 17 15 15 14 11 20 20 17 15 19 21 26
10 8 10 10 6 9 12 15 13 13 14 12 8 7 4 3 3 4 3 3 5 1 7 17 15 15 15 13 11 17 19 15 13 13 15 18 21 19 18 16 20 24 19
9 12 9 7 9 9 12 13 11 12 12 9 8 5 3 1 2 4 7 2 3 3 6 14 15 16 19 17 15 16 15 13 13 16 17 20 20 24 19 17 20 16 14
11 11 7 7 8 8 11 10 11 10 11 8 6 4 4 1 3 5 6 2 1 2 5 10 15 15 23 21 17 17 16 13 11 11 19 22 25 27 18 19 17 18 19
15 10 8 7 8 9 10 10 9 9 9 7 4 3 4 1 1 3 4 5 4 3 7 8 12 12 18 23 20 17 14 13 14 19 25 27 25 22 19 22 27 21 21
14 11 11 9 7 10 12 9 8 8 7 7 6 4 3 2 3 2 4 7 8 10 9 7 9 14 14 20 18 16 10 16 19 27 23 26 23 20 21 21 21 22 21
12 11 13 10 8 11 9 8 7 8 10 9 6 4 3 4 3 2 3 7 11 11 8 10 14 21 17 17 17 16 14 17 21 24 18 19 19 23 21 23 21 21 21
13 10 9 5 7 7 8 6 5 7 10 9 5 2 4 4 4 3 6 8 14 16 16 18 19 15 15 15 18 15 17 17 16 16 16 16 19 22 20 22 22 22 19
12 13 9 7 2 5 8 6 7 9 10 8 7 6 5 6 5 5 8 11 16 19 18 18 18 18 17 15 17 19 17 15 15 15 17 17 22 21 20 21 20 19 17
12 11 12 3 8 1 10 9 7 8 8 7 7 7 7 7 8 10 10 10 16 18 18 16 17 16 14 12 13 14 12 13 16 17 15 17 18 18 19 19 18 17 18
12 13 11 4 6 5 9 10 10 9 11 11 12 13 13 11 10 11 13 12 13 15 15 15 14 13 11 8 13 10 9 12 15 10 13 15 16 17 16 17 18 19 20
14 18 15 7 7 7 5 7 7 9 9 12 14 14 13 14 14 14 12 11 11 11 10 9 8 9 11 11 13 14 14 15 16 17 16 15 15 16 16 17 19 21 21
10 19 19 11 10 8 7 10 7 4 6 4 7 10 11 11 12 12 13 12 12 11 8 7 6 6 6 7 7 10 13 13 14 15 14 14 14 16 17 19 20 21 23
12 11 16 12 9 11 9 6 7 9 9 6 5 6 8 11 7 8 7 9 8 5 2 6 5 3 1 3 6 8 10 11 12 14 15 16 17 19 20 21 23 25 26
14 8 12 12 11 14 16 9 8 7 5 5 6 1 5 12 9 6 4 6 7 6 3 4 5 6 5 9 10 9 9 12 12 14 16 17 19 20 21 23 23 25 26
31 27 23 22 19 13 11 12 15 15 16 14 6 6 5 10 15 9 9 8 4 2 3 4 4 6 8 12 13 14 16 16 15 16 18 20 21 21 24 25 25 27 29
15 18 19 20 18 19 21 19 21 20 24 20 22 16 15 17 18 18 21 20 16 16 17 15 15 15 19 20 19 19 18 19 20 21 22 23 23 25 27 27 27 29 31
19 18 15 14 14 15 15 14 15 13 11 14 14 13 12 11 10 9 11 13 14 16 18 19 19 21 22 23 23 23 23 25 25 24 25 28 30 31 33 34 35 36 37

GFSGL_700_spd_036.txt.gz
Wind_Speed
19 20 21 22 19 15 14 14 16 14 14 12 15 15 20 20 20 20 19 15 13 13 14 13 16 13 10 8 4 2 4 6 8 13 18 16 14 12 16 20 17 18 20
16 15 15 14 14 13 13 13 14 14 13 15 16 18 19 19 17 14 12 11 11 13 11 13 11 10 7 6 4 3 3 7 11 9 19 17 15 18 17 18 17 18 19
16 16 15 13 12 14 14 14 15 15 16 17 16 15 15 14 11 9 9 11 11 13 10 12 9 9 8 7 7 6 5 8 14 13 17 15 14 19 20 19 18 19 21
21 16 15 14 13 14 14 16 16 16 15 13 11 11 9 10 6 6 7 11 12 12 12 12 9 10 11 9 7 6 7 8 17 14 15 16 16 18 18 16 19 21 19
17 17 13 13 17 15 15 16 15 13 12 11 11 11 12 9 5 4 8 9 8 11 11 13 11 12 13 10 8 8 7 11 14 13 16 16 17 17 18 19 19 20 21
13 10 11 14 14 14 15 14 12 12 13 13 13 11 8 5 4 8 11 10 7 8 12 11 10 11 13 12 11 12 10 9 10 11 14 16 16 16 18 19 19 21 24
9 7 10 11 11 12 11 12 12 14 14 13 12 10 8 5 4 7 6 4 5 4 10 12 12 12 13 14 13 11 12 12 13 14 14 14 15 15 17 19 18 18 18
7 8 10 10 11 12 13 13 13 13 10 9 8 6 6 5 5 4 1 5 3 7 9 13 12 13 13 15 13 12 9 15 16 15 16 16 16 16 18 18 15 15 17
10 9 9 9 10 12 13 13 12 14 12 9 8 6 4 3 3 3 5 5 7 6 10 12 14 13 14 14 13 11 9 16 15 17 15 17 19 17 15 17 18 17 19
7 7 7 8 11 12 12 12 13 13 11 10 7 5 3 3 2 2 6 3 4 6 9 13 13 14 13 12 11 12 14 16 15 13 10 9 14 17 15 16 15 18 16
12 9 6 4 7 11 10 14 14 13 12 10 6 4 2 1 2 3 4 4 6 5 3 13 14 14 13 13 11 14 17 16 13 11 10 8 17 17 17 16 16 17 18
17 13 10 7 8 9 10 13 13 10 10 8 6 3 3 1 3 4 3 3 4 5 6 12 15 15 13 13 12 16 18 15 12 11 13 11 16 15 18 18 20 20 19
9 5 10 9 9 10 10 9 12 14 12 8 4 3 2 1 2 4 2 1 2 4 6 13 15 14 16 17 15 14 14 12 9 9 13 17 16 22 20 25 22 17 18
9 10 12 9 9 10 11 9 10 10 8 7 4 2 2 1 1 3 3 3 7 9 9 10 15 15 19 18 17 14 11 11 9 8 14 18 22 19 14 13 15 16 17
12 11 11 7 8 8 9 7 7 8 7 6 5 3 2 3 2 4 3 6 9 9 11 13 12 12 15 20 16 13 10 11 14 13 18 21 21 14 13 16 18 18 17
10 13 13 5 6 8 7 6 5 7 9 8 4 6 6 4 3 4 4 9 14 19 21 22 18 18 16 14 12 11 13 14 18 18 13 15 10 17 16 17 18 18 16
16 10 10 4 5 9 5 5 4 7 8 7 6 5 4 4 5 7 8 13 19 20 23 21 22 21 18 17 16 15 17 15 15 13 12 12 15 16 14 17 15 15 13
16 11 11 13 8 5 4 8 9 7 6 5 5 5 6 7 8 10 11 15 18 19 23 20 17 18 16 17 15 13 13 13 14 13 13 13 15 16 14 15 14 13 12
16 6 16 9 7 8 8 9 12 10 9 9 10 10 10 11 12 13 15 15 16 18 19 19 17 15 13 12 9 9 8 7 10 12 13 11 11 10 9 10 11 12 14
12 7 18 4 8 9 13 12 13 15 15 15 15 15 15 15 14 13 13 14 14 12 12 13 12 9 10 10 12 7 7 10 11 10 9 10 8 10 13 13 12 14 15
8 7 15 8 10 9 8 13 15 13 15 13 13 13 16 17 16 14 13 13 12 10 9 8 7 5 5 7 4 2 2 5 6 7 8 9 9 11 12 14 14 14 15
15 18 19 17 12 11 7 7 10 7 9 8 9 9 9 18 19 12 17 11 15 16 15 9 10 12 10 6 5 2 1 1 4 4 5 7 11 11 12 13 15 18 20
20 17 11 18 14 10 13 12 13 5 3 7 9 10 12 14 11 10 13 12 13 10 9 7 13 7 6 8 8 4 5 7 4 8 12 15 16 14 16 18 18 22 24
24 27 21 16 22 20 21 22 16 15 13 11 10 13 16 9 11 14 11 2 6 11 8 6 5 12 6 11 9 11 11 14 11 12 15 15 14 18 20 21 22 25 26
17 24 22 17 19 18 24 14 18 18 18 15 12 6 5 11 12 12 11 14 9 10 6 8 11 13 14 15 15 16 16 15 17 18 19 19 21 21 23 25 23 26 28
28 23 22 22 22 19 20 23 21 19 20 16 16 13 8 4 9 11 13 15 15 15 13 14 14 14 16 14 16 21 20 20 21 22 22 22 24 26 28 30 31 33 35

GFSGL_700_spd_042.txt.gz
Wind_Speed
34 34 34 33 32 32 30 26 25 25 23 23 24 24 20 22 23 22 16 13 15 17 18 17 14 12 12 12 13 14 13 12 12 13 13 13 12 16 17 20 19 20 21
34 32 34 34 31 28 28 27 26 24 23 23 20 19 21 22 18 14 15 16 17 15 14 13 13 14 11 12 11 9 7 5 5 11 16 14 13 16 24 19 19 21 20
30 32 33 30 25 28 27 26 23 20 18 18 19 20 19 15 15 17 16 15 13 14 12 12 14 14 10 10 11 9 6 6 5 10 15 16 15 18 22 20 19 19 22
33 32 29 26 26 24 23 21 19 18 19 18 17 14 16 17 17 16 14 12 12 13 14 12 13 12 13 12 11 11 6 6 9 11 14 18 14 17 19 19 19 21 21
37 31 25 27 25 22 21 20 20 18 17 15 16 18 18 16 16 14 13 10 9 12 13 13 15 13 14 14 12 10 7 6 8 10 14 13 18 17 20 20 19 19 19
31 30 27 24 23 22 22 21 19 17 18 16 16 15 15 13 12 13 8 8 11 12 11 10 13 15 15 16 15 11 9 7 12 11 10 13 16 18 19 16 17 18 20
34 29 27 26 25 24 22 20 20 17 15 15 14 11 9 11 11 7 6 9 8 8 10 12 15 18 20 17 14 15 13 12 14 11 11 11 13 15 14 14 15 15 13
34 29 26 25 25 22 21 19 19 17 15 13 11 9 13 12 8 6 6 5 6 8 7 11 21 18 16 15 14 16 13 12 11 11 12 14 14 14 15 13 13 14 15
30 27 25 24 21 18 19 20 20 15 14 12 12 13 12 9 8 7 7 7 7 6 8 11 14 15 15 15 15 13 15 12 13 12 14 15 16 15 13 16 16 16 16
25 22 19 20 18 17 16 16 17 16 17 15 14 12 10 8 8 7 5 4 5 8 9 15 15 16 15 17 15 13 12 10 13 11 11 12 13 13 15 16 15 13 13
19 18 18 17 16 19 18 17 17 19 19 15 13 10 8 6 5 4 5 3 5 7 11 14 15 15 15 17 15 13 12 12 15 14 12 12 13 15 15 16 18 16 14
15 13 14 15 19 21 20 19 20 18 17 14 12 9 7 2 4 2 5 7 11 9 10 15 17 17 17 16 14 13 13 15 15 14 11 9 12 16 17 17 17 17 17
19 14 16 19 19 21 21 22 21 19 16 14 11 8 9 5 4 4 4 7 13 14 13 16 17 17 17 15 15 14 16 16 14 12 10 9 9 14 18 18 18 23 23
15 12 17 21 19 19 21 21 20 18 17 13 10 9 8 6 6 5 5 7 10 13 15 17 19 17 18 14 13 16 18 16 13 12 11 13 13 11 12 15 18 16 23
10 16 18 16 17 19 19 20 18 18 15 13 9 6 5 5 4 3 3 5 8 12 15 19 17 18 16 15 15 17 16 14 12 11 12 15 14 11 10 13 14 15 15
10 18 18 17 18 17 18 19 20 19 15 10 7 7 6 3 1 1 2 3 8 12 14 19 21 18 18 17 15 13 13 11 11 11 13 17 14 12 10 13 13 12 12
18 22 17 16 16 16 18 16 16 17 15 12 7 8 6 4 5 7 11 11 12 15 17 17 18 18 17 16 14 11 11 10 14 18 19 19 15 12 11 11 12 12 10
21 17 18 16 14 14 15 16 14 14 11 10 11 10 8 9 13 14 15 16 21 26 23 22 20 19 17 13 10 12 20 20 20 19 15 12 14 14 11 10 10 10 10
23 23 20 17 15 15 13 14 16 15 14 12 10 11 11 14 17 19 22 24 22 24 25 24 23 21 17 17 15 18 18 15 14 13 14 14 13 10 11 11 11 10 9
19 18 18 17 18 17 15 14 14 14 14 15 15 15 16 19 19 22 21 22 21 20 20 19 17 19 16 15 12 14 14 15 14 13 13 14 11 10 11 8 8 8 7
26 24 21 21 23 23 23 22 21 20 20 22 24 25 24 25 24 24 22 20 19 19 19 19 16 16 13 15 14 19 15 14 14 12 12 10 7 5 2 5 6 5 3
27 24 25 25 26 28 26 24 22 21 20 23 26 27 27 28 25 23 23 22 21 19 17 18 16 15 12 11 11 13 12 13 10 10 8 5 5 6 1 6 5 8 7
26 24 23 22 22 25 23 22 20 19 19 20 22 23 23 23 22 21 20 20 18 18 14 15 12 9 8 8 7 3 5 6 3 2 5 5 6 7 7 11 17 18 14
21 18 12 19 21 21 21 21 20 18 15 15 17 18 22 21 17 22 21 14 13 13 10 8 11 11 9 4 5 7 4 8 5 7 8 8 10 15 14 14 15 18 19
15 14 12 18 18 17 17 11 9 16 15 15 15 10 14 13 13 14 12 9 12 8 6 9 9 7 6 5 7 4 7 4 7 8 11 13 18 20 19 21 20 25 25
14 13 17 25 22 16 16 15 10 9 9 9 9 10 9 12 11 9 10 8 7 5 9 6 4 4 4 6 7 7 12 10 13 14 17 21 18 24 22 28 29 28 32

GFSGL_700_spd_045.txt.gz
Wind_Speed
46 38 35 31 33 37 39 36 34 34 31 27 25 24 25 26 25 21 21 21 21 17 18 18 18 17 14 12 13 14 13 15 15 13 13 8 1 15 18 16 16 26 24
37 33 35 37 35 36 36 35 36 33 29 27 26 26 26 24 21 20 19 19 17 17 18 17 16 13 11 11 15 13 10 11 8 10 13 12 11 14 14 15 15 18 20
38 32 30 29 32 35 33 36 32 29 28 26 25 26 21 19 19 19 20 16 16 18 17 15 13 11 10 12 12 10 7 7 5 6 10 14 15 18 18 20 17 18 18
30 29 30 29 30 31 33 29 28 27 25 25 23 20 18 19 20 18 17 14 16 15 15 14 13 11 9 11 12 9 8 6 6 6 12 11 10 12 21 17 16 19 19
29 33 31 30 30 29 29 29 26 24 23 22 19 17 20 18 16 13 13 14 14 13 14 14 14 11 13 13 13 9 8 6 7 7 9 15 14 12 15 17 17 18 17
31 32 33 32 32 26 27 24 23 22 21 18 19 16 16 15 15 15 13 12 13 12 13 12 13 15 16 13 13 10 10 7 7 7 9 6 12 12 15 15 13 15 17
32 31 31 28 28 26 26 25 25 21 20 18 18 16 16 15 15 14 12 11 11 11 11 13 14 16 14 13 13 11 11 11 14 12 9 8 8 9 13 13 14 14 13
32 29 27 31 30 29 28 25 23 20 18 16 16 16 15 16 15 14 11 8 7 7 10 13 14 15 19 17 14 12 10 12 11 8 10 12 12 13 13 13 11 13 14
32 31 35 30 30 30 29 28 22 19 18 16 16 14 14 15 13 10 7 8 7 9 9 7 9 17 18 17 15 14 12 11 10 9 12 14 14 15 14 13 14 14 15
37 38 34 33 31 29 25 21 20 19 18 16 14 14 15 13 9 8 8 7 7 6 8 8 13 17 15 16 16 14 13 11 11 10 11 12 13 14 15 15 13 12 12
40 36 33 30 25 19 21 21 22 21 18 17 16 14 11 9 6 7 8 7 9 10 8 13 11 14 16 17 17 15 14 11 12 12 13 12 12 13 13 16 15 14 12
34 30 27 24 24 24 23 23 21 21 19 17 16 12 10 7 7 7 6 7 8 8 9 13 13 14 15 18 16 14 12 11 15 14 13 12 12 13 13 16 16 17 17
28 26 24 23 24 24 23 20 23 22 18 16 13 12 11 9 10 7 7 8 11 11 11 12 15 16 15 16 15 13 10 10 13 13 11 10 10 13 16 17 18 19 18
23 22 22 25 27 24 21 21 21 19 18 14 12 10 12 10 8 8 6 6 10 16 13 12 17 15 16 15 14 13 12 15 15 13 12 11 10 8 16 19 16 17 19
20 22 23 24 23 24 25 24 22 19 15 11 10 10 8 7 7 6 6 7 10 15 14 15 14 13 14 14 13 13 16 17 15 13 12 12 12 9 8 10 12 17 11
19 21 20 19 20 21 22 22 22 21 17 14 12 9 6 4 3 3 4 6 9 13 18 17 19 16 15 13 12 14 17 15 13 12 11 12 12 10 7 12 10 10 10
18 23 22 19 19 18 21 23 21 20 17 12 8 6 4 2 1 5 6 6 10 15 18 20 17 16 14 15 14 13 13 12 13 13 12 16 16 12 12 13 10 12 12
26 22 20 21 19 19 19 20 19 16 14 9 7 8 7 8 11 10 8 11 14 17 17 19 16 13 14 14 12 11 11 11 10 14 18 17 14 12 13 12 12 12 10
21 21 21 19 18 18 18 15 16 15 12 8 8 9 11 14 15 16 22 22 22 22 21 19 18 16 12 9 8 13 15 18 19 18 16 14 13 11 12 11 13 12 10
22 19 18 18 18 17 20 17 17 17 16 14 13 14 17 21 20 22 24 26 26 25 24 22 18 17 14 13 16 15 17 16 15 12 12 13 13 12 12 12 12 12 10
18 19 20 21 20 18 18 19 19 19 17 17 19 20 21 22 20 21 24 19 21 21 21 21 15 12 14 9 15 13 15 16 16 14 15 14 14 9 4 5 6 5 8
21 21 22 22 21 21 20 20 19 19 20 22 24 24 23 23 22 19 16 17 16 16 15 16 18 16 14 14 11 12 14 16 15 14 12 9 11 12 13 9 7 9 10
24 26 25 24 21 20 20 19 18 19 20 23 24 25 23 22 21 19 18 17 17 16 17 16 15 13 11 10 9 9 11 11 8 5 8 7 5 5 7 7 8 11 17
23 24 23 21 21 19 19 19 19 18 18 18 18 20 20 19 19 18 14 14 14 13 11 11 9 9 8 7 4 6 6 8 5 7 12 11 12 9 16 18 16 16 16
20 16 14 18 17 19 17 21 22 21 19 20 22 19 18 20 22 19 11 12 11 6 6 7 11 5 6 4 5 4 6 6 7 9 8 9 13 13 18 23 24 25 25
16 13 15 18 16 18 20 22 21 22 21 17 18 17 16 15 14 12 9 10 13 7 6 7 10 11 8 9 9 8 8 8 11 11 12 17 18 19 20 22 27 28 29

GFSGL_700_spd_048.txt.gz
Wind_Speed
45 45 42 41 41 37 35 31 34 34 37 37 35 33 27 26 28 28 27 26 22 21 20 20 19 18 16 16 15 13 13 13 13 13 13 12 11 15 18 18 17 20 19
43 42 39 38 32 35 31 27 30 35 33 32 32 29 26 27 27 28 26 24 20 21 21 19 16 13 13 13 12 11 12 11 10 8 8 9 2 10 14 15 16 21 21
43 41 37 29 30 30 31 31 32 34 33 32 31 28 26 25 25 26 22 20 21 21 20 16 12 11 11 12 11 10 8 8 8 8 9 13 10 12 13 17 11 14 20
42 33 31 28 30 27 25 29 31 31 33 33 27 25 24 24 24 21 21 22 22 20 16 13 11 11 12 11 10 9 7 7 5 6 10 13 12 13 14 13 12 13 15
35 34 30 28 29 26 23 27 28 30 31 27 25 24 23 22 22 22 19 18 17 16 12 12 11 12 12 13 12 9 7 7 5 6 8 8 7 9 18 17 16 14 17
34 34 30 29 26 25 24 25 28 25 22 24 22 20 22 21 19 17 17 15 13 12 11 12 13 15 16 13 12 10 9 8 7 6 9 12 11 8 14 15 14 15 16
34 36 33 32 28 27 26 25 24 21 23 21 20 20 20 19 17 15 13 11 12 12 13 14 15 14 14 14 11 12 9 8 10 13 10 9 13 10 13 13 13 14 14
35 35 34 36 31 29 26 24 22 23 20 21 17 18 17 16 16 15 13 12 11 12 10 11 14 15 15 13 13 12 9 8 11 11 11 14 16 15 15 13 11 13 14
34 34 32 29 30 27 25 26 25 23 19 18 16 17 17 16 16 15 13 11 10 9 11 11 13 14 16 18 15 13 11 11 12 9 11 12 13 15 15 12 11 12 14
28 29 26 26 29 30 30 28 24 21 20 17 17 16 16 17 16 14 11 10 9 8 7 7 8 14 19 22 16 13 14 13 13 10 10 11 13 15 15 14 15 12 12
28 27 22 29 33 32 29 28 26 23 22 20 17 17 17 15 12 10 10 8 8 9 5 8 6 16 16 16 16 16 15 14 12 12 11 11 12 12 14 14 15 16 13
38 29 30 32 30 31 27 27 27 23 20 18 18 17 15 12 10 9 8 7 5 4 10 11 11 13 13 15 15 14 14 11 10 12 11 12 12 12 13 15 16 15 16
35 39 37 34 32 25 24 24 24 23 21 20 17 15 13 12 11 9 6 7 10 8 10 12 13 13 13 15 16 14 13 11 11 13 11 11 11 13 13 13 16 16 15
37 36 36 31 26 25 24 23 24 24 20 17 15 13 12 11 9 8 7 7 12 16 12 11 13 14 14 16 15 13 12 11 13 14 13 12 11 12 14 15 14 12 13
40 36 32 30 28 28 26 24 24 21 18 15 15 12 10 8 7 8 9 10 11 16 15 10 15 14 15 15 15 13 12 12 13 12 11 10 8 6 7 16 15 13 12
33 34 33 31 28 26 25 27 26 23 20 16 12 9 7 5 6 8 8 8 11 16 12 14 14 13 13 13 11 12 12 14 14 12 10 9 10 10 6 12 10 11 14
26 28 29 27 27 27 28 27 24 23 17 12 8 6 5 5 5 5 6 10 12 12 18 13 18 14 12 11 10 11 14 14 13 13 13 11 12 9 9 8 12 8 9
26 27 27 27 26 28 26 24 20 14 11 6 6 7 5 5 8 9 9 13 17 18 16 16 16 15 11 12 11 12 12 13 12 13 15 14 15 14 12 11 10 10 10
28 28 27 26 24 25 25 22 19 15 9 6 7 7 7 9 9 13 14 15 15 13 18 15 14 12 12 12 11 11 10 9 8 10 14 16 14 11 15 13 14 10 9
25 25 25 25 25 24 23 20 19 17 13 12 10 9 12 14 20 26 25 22 21 20 18 15 14 12 10 7 10 11 12 14 13 15 13 13 12 5 7 6 9 10 9
25 24 21 21 22 23 22 17 19 19 16 14 15 17 17 20 24 27 24 24 21 21 19 15 14 11 9 12 13 15 14 16 10 4 9 12 12 9 7 8 10 11 11
19 21 22 21 20 21 21 19 20 19 17 17 19 21 22 22 20 19 20 19 16 19 16 17 13 11 13 10 8 8 10 12 13 12 15 13 12 11 8 9 9 9 11
19 19 20 20 19 18 19 21 20 18 19 20 20 22 22 22 17 16 18 16 15 15 16 16 16 15 14 10 9 11 11 7 8 7 9 10 11 6 5 5 6 10 10
20 20 21 21 21 20 19 19 19 18 18 18 20 20 20 20 17 15 13 12 12 13 12 11 10 7 6 2 5 7 4 5 4 4 5 8 9 11 13 12 19 20 20
21 22 21 20 20 20 21 21 20 20 19 18 20 20 19 19 17 15 15 14 13 10 8 7 9 8 4 4 4 3 5 3 7 7 8 9 10 13 13 14 17 19 18
20 18 20 21 21 21 22 24 26 25 24 22 21 20 18 16 18 12 11 12 9 6 9 5 7 4 3 5 5 6 4 6 9 10 13 14 16 17 18 20 25 26 20